Regional Weather Roundup
Issued by NWS

Home | Current Version | Previous Version | Text Only | Print | Product List | Glossary On
Versions: 1 2 3 4 5 6 7 8 9 10 11 12 13 14 15 16 17 18 19 20 21 22 23 24 25 26 27 28 29 30 31 32 33 34 35 36 37 38 39 40 41 42 43 44 45 46 47 48 49 50
000
ASUS43 KMKX 222121
RWRWI

WISCONSIN REGIONAL WEATHER ROUNDUP
NATIONAL WEATHER SERVICE MILWAUKEE/SULLIVAN WI
400 PM CDT TUE AUG 22 2017

NOTE: "FAIR" INDICATES FEW OR NO CLOUDS BELOW 12,000 FEET WITH NO
SIGNIFICANT WEATHER AND/OR OBSTRUCTIONS TO VISIBILITY.

WIZ001-002-006>008-014>016-023>028-222200-
NORTHWEST WISCONSIN

CITY           SKY/WX    TMP DP  RH WIND       PRES   REMARKS
SUPERIOR ARPT  LGT RAIN  65  53  65 NW20G25   29.95R
ASHLAND        CLOUDY    66  52  60 W21G29    29.92S
HAYWARD        CLOUDY    67  47  48 W8        29.96S
SIREN          PTSUNNY   70  47  43 NW15      30.00S
CUMBERLAND     PTSUNNY   68  45  42 W23G29    30.00R
RICE LAKE      PTSUNNY   70  47  44 W15G21    30.00S
CHETEK         PTSUNNY   70  48  45 NW8G18    29.99R
LADYSMITH      PTSUNNY   71  48  44 W15G25    29.98S
EAU CLAIRE     PTSUNNY   72  48  42 NW21G28   29.97F
MENOMONIE      MOSUNNY   71  47  43 W14G23    29.99S
NEW RICHMOND   MOSUNNY   69  44  40 NW13G21   30.02S
OSCEOLA        MOSUNNY   73  46  38 NW17G23   30.04S
$$

WIZ003>005-009-010-017-018-222200-
NORTH CENTRAL WISCONSIN

CITY           SKY/WX    TMP DP  RH WIND       PRES   REMARKS
MANITOWISH WTR CLOUDY    64  50  60 W13G18    29.92R
ARBOR VITAE    CLOUDY    64  52  64 NW6       29.92R
WOODRUFF       CLOUDY    64  52  64 NW6       29.92R
RHINELANDER    PTSUNNY   66  51  58 W17G28    29.93R
EAGLE RIVER    CLOUDY    65  49  55 NW13G18   29.91R
LAND O LAKES   PTSUNNY   64  48  55 W13G20    29.91S
PHILLIPS       PTSUNNY   67  49  51 NW9G18    29.93S
TOMAHAWK       LGT RAIN  61  53  76 NW6G26    29.94R
MEDFORD        PTSUNNY   69  48  46 W20G28    29.95S
MERRILL        CLOUDY    70  48  46 NW12G20   29.93R
$$

WIZ029-030-035-036-043>047-222200-
CENTRAL WISCONSIN

CITY           SKY/WX    TMP DP  RH WIND       PRES   REMARKS
WAUSAU         MOSUNNY   70  47  43 W15G28    29.92R
MOSINEE        PTSUNNY   72  46  40 W20G29    29.94F
MARSHFIELD     MOSUNNY   72  46  39 NW17G32   29.95F
STEVENS POINT  PTSUNNY   69  47  44 NW12G22   29.94F
WAUPACA        MOSUNNY   75  46  36 W14G20    29.93S
WAUTOMA        CLOUDY    75  49  39 NW21G29   29.94S
WISC RAPIDS    MOSUNNY   74  50  42 NW18G26   29.97R
CAMP DOUGLAS   MOSUNNY   75  52  43 W18       29.97S
$$

WIZ011>013-019>022-031-037>040-048>050-222200-
NORTHEAST WISCONSIN

CITY           SKY/WX    TMP DP  RH WIND       PRES   REMARKS
ANTIGO         PTSUNNY   67  48  51 NW16G24   29.92R
SHAWANO        MOSUNNY   74  47  38 NW14G20   29.89S
OCONTO         MOSUNNY   73  48  40 NW10G20   29.86R
STURGEON BAY   PTSUNNY   72  51  47 NW15      29.86R
GREEN BAY      MOSUNNY   74  52  46 NW14G22   29.89R
MANITOWOC      PTSUNNY   73  50  44 NW15G25   29.89R
APPLETON       PTSUNNY   72  43  35 NW15G24   29.90R
CLINTONVILLE   MOSUNNY   72  43  35 NW16G22   29.90S
OSHKOSH        MOSUNNY   73  51  46 NW13G22   29.91R
$$

WIZ032>034-041-042-053>061-222200-
SOUTHWEST WISCONSIN

CITY           SKY/WX    TMP DP  RH WIND       PRES   REMARKS
LA CROSSE      MOSUNNY   78  50  37 NW18G28   30.00R
SPARTA         MOSUNNY   74  49  42 NW14G20   30.00S
VIROQUA        MOSUNNY   70  52  53 NW13G20   30.02S
BOSCOBEL       SUNNY     77  48  35 N8        30.00S
PRAIRIE DU CHI PTSUNNY   75  46  35 NW9G18    30.01S
PLATTEVILLE    SUNNY     74  52  45 NW16G22   30.01R
$$

WIZ056-057-062-063-064-067-068-222200-
SOUTH CENTRAL WISCONSIN

CITY           SKY/WX    TMP DP  RH WIND       PRES   REMARKS
REEDSBURG      MOSUNNY   74  49  41 NW16G25   29.98R
BARABOO/DELLS  MOSUNNY   73  44  36 NW15G21   29.97S
LONE ROCK      MOSUNNY   75  50  41 NW16G26   29.98R
MINERAL POINT  MOSUNNY   73  48  40 NW12G21   30.00S
MADISON        MOSUNNY   75  51  43 NW14G24   29.95R
MIDDLETON      MOSUNNY   74  49  41 NW17G23   29.97S
WATERTOWN      MOSUNNY   75  51  43 W13G21    29.94R
MONROE         SUNNY     73  46  38 NW16      29.98R
JANESVILLE     PTSUNNY   79  52  38 NW15G21   29.94S
$$

WIZ051-052-058>065-066-070>072-222200-
SOUTHEAST WISCONSIN

CITY           SKY/WX    TMP DP  RH WIND       PRES   REMARKS
MILWAUKEE      PTSUNNY   79  51  37 W14G28    29.90S
WAUKESHA       MOSUNNY   73  46  38 W17G24    29.93S
MILWAUKEE/TIMM SUNNY     75  43  31 NW21      29.91S
RACINE         SUNNY     77  52  41 W14G22    29.92S
KENOSHA        MOSUNNY   77  52  41 W18G24    29.92R
FOND DU LAC    PTSUNNY   74  49  41 NW15      29.92R
SHEBOYGAN      PTSUNNY   74  53  48 NW15G24   29.90R
WEST BEND      MOSUNNY   72  46  40 NW13G25   29.92R
JUNEAU         PTSUNNY   73  51  45 NW14G23   29.95R
$$

LSZ147-162-222200-
LAKE SUPERIOR

STATION/POSITION TIME  TEMP    WIND        PRES    WAVE
                       AIR SEA DIR/SP/G            HT/PER
                 (UTC) (F)     (DEG/KT/KT) (MB)    (FT/S)
W MID LAKE BUOY  2050   62 60  270/ 19/ 23 1010.0F   3/ 5
DEVILS ISLAND    2100   61     290/ 11/ 12 1012.3R
SAXON HARBOR     2030   69     300/ 17/ 25 1012.2S
$$

LMZ867-665-643>646-222200-
LAKE MICHIGAN

STATION/POSITION TIME  TEMP    WIND        PRES    WAVE
                       AIR SEA DIR/SP/G            HT/PER
                 (UTC) (F)     (DEG/KT/KT) (MB)    (FT/S)
S GREEN BAY BUOY 2100   71 71  290/ 16/ 17 1011.4
N MID LAKE BUOY  2050   68 67  290/ 19/ 21 1009.6R   3/ 5
NORTHPORT PIER   2040   71     310/ 15/ 22 1009.8R
KEWAUNEE LAKESHO 2054   74     310/ 10/ 19 1010.6R
SHEBOYGAN LAKESH 2100   72     300/ 14/ 17 1011.8R
PORT WASHINGTON  2030   76     310/  8/ 18 1012.9S
ATWATER BUOY     2009   72 67  310/ 14/ 17 1012.5R
MILWAUKEE LAKESH 2100   75     290/ 16/ 20   N/A
S MID LAKE BUOY  2050   71 72  350/ 16/ 17 1011.9R   3/ 5
KENOSHA   LAKESH 2100   76     320/ 16/ 19 1012.2
$$

TC  - TEMPERATURE IN CELSIUS
VSB - VISIBILITY IN STATUTE MILES
WCI - WIND CHILL INDEX
HX  - HEAT INDEX





USA.gov is the U.S. government's official web portal to all federal, state and local government web resources and services.